Theta_e
333 333 333 331 331 331 329 328 329 330 328 328 328 328 330 331 332 333 333 332 331 328 328 328 328 329 329 327 325 323 321 321 321 321 320 319 319 318 317 317 318 318 318 317 316 317 317 318 318 318 318 318 318 318 318 318 318 318 318 319 320 323 327 330 332 334 335 336 338 340 341 341 342 343
332 333 333 332 331 330 329 329 330 330 328 327 327 327 328 329 329 330 332 332 331 329 328 327 327 328 328 328 328 325 321 321 322 321 319 317 317 317 316 317 318 318 318 318 317 316 317 318 318 318 318 318 318 318 319 319 319 318 318 318 318 319 321 323 327 330 332 333 334 335 337 339 339 341
332 332 332 331 330 329 329 329 330 330 328 327 327 326 326 327 327 327 329 330 331 329 329 328 328 328 328 328 327 325 320 318 320 319 318 318 319 318 318 318 318 317 317 317 317 316 316 317 318 318 318 318 318 318 318 318 319 319 319 319 318 318 319 319 321 324 327 330 331 333 334 335 336 338
332 332 332 331 330 330 330 329 329 330 328 326 326 326 325 326 326 326 326 328 329 329 329 329 328 328 328 326 325 323 319 318 319 318 318 319 319 320 320 319 318 317 317 318 318 317 316 317 318 318 318 318 318 318 318 318 318 318 319 319 319 319 318 318 319 320 321 324 328 330 332 333 334 335
332 332 332 331 331 331 330 329 328 329 329 327 327 328 328 328 328 327 327 327 327 326 327 328 328 328 327 326 325 324 321 320 320 320 319 319 320 320 319 319 320 319 318 318 318 317 317 317 317 318 318 318 318 318 318 318 318 318 318 318 319 319 319 319 319 319 319 321 323 326 329 331 332 333
332 332 332 332 331 330 330 328 327 329 329 329 329 329 329 329 329 327 327 327 326 326 325 326 328 328 327 327 326 325 323 320 320 320 320 319 320 320 319 320 321 321 320 319 319 318 318 317 317 318 318 318 318 318 318 318 318 318 318 318 318 318 319 319 319 319 319 319 320 322 325 328 330 332
333 333 332 331 330 331 331 328 327 328 328 328 328 327 327 328 327 326 327 326 325 325 324 324 327 328 327 326 324 322 321 320 319 319 319 319 320 320 320 320 321 321 321 321 320 319 319 318 318 318 317 318 318 318 319 318 318 317 318 318 318 318 318 319 319 319 319 319 319 320 322 325 327 330
333 333 332 331 331 331 331 329 327 327 328 328 328 328 328 329 328 327 328 328 327 327 325 323 324 325 325 324 321 320 320 319 319 320 320 321 322 322 323 323 323 323 323 323 322 321 320 319 318 317 317 318 318 319 319 318 318 318 318 318 318 318 318 318 319 320 320 319 319 319 320 322 325 327
329 330 330 330 331 330 330 329 329 329 330 329 329 329 330 329 329 328 327 328 330 331 329 325 322 323 324 323 322 322 321 322 323 323 323 323 324 325 326 327 327 326 326 325 324 324 323 321 319 318 317 317 318 319 319 318 318 318 318 318 318 318 319 319 318 319 320 320 319 318 319 321 323 325
327 326 326 327 328 329 328 328 329 330 330 329 328 328 328 327 328 329 329 329 331 332 332 328 324 323 325 325 323 322 323 324 325 324 324 324 325 327 327 327 327 326 326 326 325 325 324 323 322 320 319 320 320 320 319 318 318 318 319 319 318 318 319 319 319 319 319 320 320 319 319 320 322 324
329 328 326 325 326 327 327 326 327 329 330 330 328 328 329 329 330 331 331 330 330 331 331 330 328 326 325 325 324 322 323 325 325 324 325 325 326 326 327 326 326 326 326 326 326 325 325 324 324 323 323 323 323 322 321 321 319 318 319 319 319 318 319 319 319 319 319 320 321 320 319 319 320 323
328 329 329 328 327 329 328 326 326 329 330 330 329 328 328 328 329 330 329 328 327 328 329 329 328 326 325 325 325 325 326 327 326 325 325 325 325 326 326 325 325 325 325 325 326 326 325 324 324 324 324 324 324 324 323 323 322 322 321 320 319 318 318 319 319 319 319 320 321 320 320 319 319 322
326 327 328 329 328 328 328 326 325 327 328 328 328 327 326 326 328 328 327 326 325 326 327 326 325 325 325 325 326 326 327 327 325 325 325 325 326 326 325 325 325 324 324 325 325 326 326 325 324 324 324 324 324 324 324 324 324 324 323 321 319 318 317 318 320 320 320 321 321 321 320 319 319 320
327 328 330 331 329 326 326 327 327 327 327 328 327 326 325 326 327 327 325 324 324 325 327 325 325 326 325 325 325 325 326 325 325 325 325 326 326 325 325 324 324 324 324 324 325 326 326 325 323 323 324 324 324 324 324 324 324 323 322 320 319 319 319 319 320 321 320 321 321 321 320 319 319 319
326 328 331 334 332 328 327 329 329 328 328 329 328 326 325 325 326 325 323 322 322 324 325 324 324 325 325 323 323 323 324 324 325 325 324 324 324 324 324 324 324 324 324 324 325 324 324 324 323 323 324 324 324 324 324 324 323 322 320 319 319 320 320 320 321 321 321 321 321 321 320 319 319 319
326 327 331 335 334 331 330 331 331 330 330 329 327 326 325 325 325 324 322 322 323 322 321 321 321 322 322 321 321 322 323 324 324 322 322 322 323 324 324 325 325 325 324 324 324 324 323 323 323 323 323 323 323 323 323 323 323 321 320 318 318 320 321 321 321 321 321 321 321 321 320 320 320 320
328 328 331 333 333 332 332 332 331 331 329 328 327 325 325 325 325 324 323 323 322 321 320 320 320 320 321 322 321 320 321 323 322 322 322 322 323 324 324 324 324 323 323 323 323 323 323 323 323 322 322 322 322 323 322 322 321 319 318 318 318 320 321 321 321 321 321 321 322 321 321 320 320 320
329 330 332 333 333 331 331 331 331 330 328 327 326 326 326 325 324 324 324 323 323 322 321 321 321 321 322 322 321 320 320 321 321 322 322 322 322 322 322 322 322 322 321 321 322 323 323 322 322 322 321 321 322 322 322 321 319 318 318 318 319 320 321 321 321 321 322 322 322 322 321 321 320 321
330 332 333 332 331 330 331 331 330 328 326 326 326 326 326 325 324 324 324 323 323 323 322 321 320 319 319 319 319 318 318 318 320 321 321 321 321 321 322 322 322 321 321 321 321 322 322 321 320 320 321 321 322 322 320 318 318 318 319 320 320 321 322 322 322 322 322 322 323 322 321 321 320 321
332 333 333 331 330 329 330 331 329 327 326 325 325 325 325 325 325 323 322 321 321 321 320 319 316 314 313 314 314 314 315 317 319 320 321 320 321 321 321 321 321 321 320 320 320 320 320 319 318 319 320 321 322 321 318 317 318 319 320 321 322 323 324 323 323 323 322 323 323 322 322 321 321 321
333 333 332 330 329 330 330 330 327 326 326 325 325 324 324 324 323 323 322 321 321 321 319 316 313 312 312 311 311 311 313 317 320 320 320 320 320 320 320 320 319 318 318 318 318 319 318 316 317 320 321 321 321 319 317 317 319 320 321 321 323 325 326 325 325 324 323 323 323 322 322 321 321 321
332 332 331 330 329 329 329 328 327 326 325 324 324 323 323 323 322 322 322 322 322 321 319 317 316 315 314 313 312 312 313 316 318 318 319 320 320 319 319 318 318 317 318 317 317 317 316 313 316 320 321 319 318 317 317 318 320 321 321 321 323 325 327 327 326 325 324 324 323 323 322 321 321 321
331 331 331 330 329 329 328 326 325 325 323 323 323 322 322 323 322 321 321 321 320 319 318 317 317 317 317 316 317 317 317 317 318 318 319 319 319 319 318 317 317 317 318 318 317 316 314 311 315 319 320 319 318 317 318 319 320 321 321 322 323 326 328 328 328 327 326 325 324 323 322 321 321 322
331 331 331 330 328 327 326 324 323 322 321 321 321 321 322 322 322 321 319 316 315 315 316 317 317 317 318 318 318 318 318 318 318 318 318 317 318 318 316 316 316 316 317 317 316 313 310 311 316 319 319 319 319 318 319 320 321 321 321 322 324 327 329 329 329 328 327 325 324 323 322 321 322 323
331 331 331 330 326 323 322 321 320 320 320 320 320 320 321 321 320 318 314 311 313 316 317 317 317 317 317 317 317 317 317 317 317 316 316 316 315 315 315 315 315 315 315 314 311 308 309 315 318 318 318 319 320 320 320 321 321 321 321 322 324 327 329 330 330 330 329 326 324 323 322 321 322 325
330 330 330 328 323 320 319 319 319 319 319 319 320 320 321 320 317 314 311 311 315 317 317 317 317 317 317 316 316 316 316 316 316 315 314 313 312 312 312 312 311 310 310 308 307 310 314 317 318 318 319 320 320 321 321 321 321 322 322 323 325 327 329 330 331 331 330 328 325 322 322 322 323 326
329 328 326 323 320 318 318 318 319 319 319 319 320 320 319 317 314 311 311 314 316 317 317 317 316 316 316 316 315 315 315 315 313 312 312 311 310 310 308 306 305 305 305 307 311 315 317 317 317 319 320 320 320 321 321 321 322 322 323 324 326 328 329 331 331 331 331 331 327 324 322 322 324 327
326 324 321 319 318 318 318 319 319 319 319 320 320 319 317 313 310 310 313 315 316 316 316 315 315 315 315 314 314 314 313 312 311 310 309 309 308 306 304 304 304 304 307 313 317 317 317 319 321 321 321 321 321 321 321 322 322 323 324 325 327 329 329 331 332 332 332 332 330 326 322 322 325 329
320 318 317 317 317 318 318 318 319 319 319 320 318 316 313 310 310 313 315 315 314 314 314 314 314 313 313 312 312 311 310 309 308 307 308 308 306 305 306 308 307 308 314 318 318 317 319 321 322 321 320 320 320 321 322 323 323 324 325 327 329 330 330 330 331 332 332 332 332 328 324 323 326 330
317 317 317 317 318 318 318 318 318 318 318 318 315 312 311 311 313 314 314 313 312 312 312 312 312 311 311 310 310 309 309 308 307 307 308 309 308 308 311 312 311 313 318 319 318 319 321 321 320 320 320 320 320 321 323 323 324 325 326 328 330 330 330 330 331 332 333 333 332 330 327 326 328 330
318 318 317 317 317 318 318 318 318 318 317 316 315 313 313 314 314 313 311 310 310 310 310 310 310 310 309 309 309 309 309 308 307 308 309 309 309 310 312 313 314 317 319 319 319 319 320 320 319 319 319 320 321 322 323 323 325 326 327 329 330 330 331 332 332 332 334 336 334 332 331 331 331 332
318 318 318 319 319 319 318 318 318 318 317 316 315 315 315 314 313 311 310 310 309 309 310 309 309 309 309 309 309 308 307 307 307 308 308 309 310 311 313 314 316 318 319 319 319 319 319 318 318 318 319 320 321 322 323 323 324 326 327 328 329 329 330 332 333 334 335 336 335 334 334 335 334 334
318 319 320 320 319 319 319 318 318 317 317 316 316 315 315 314 312 311 310 310 310 310 309 308 307 308 309 308 307 306 306 307 307 307 308 309 311 312 313 315 317 318 318 319 320 319 318 317 317 317 319 320 321 322 322 322 323 325 327 328 328 328 328 331 334 336 336 336 336 337 338 338 337 336
318 320 320 320 319 319 318 318 317 316 316 316 315 315 314 313 312 311 310 309 309 308 307 306 307 307 307 306 306 306 306 306 306 307 308 310 312 313 314 316 317 317 318 319 319 318 318 317 316 317 318 320 321 322 322 321 322 324 326 328 329 329 330 332 334 336 338 338 338 339 340 339 338 338
319 320 320 319 319 318 317 317 316 316 315 315 315 314 313 312 312 311 309 309 308 307 306 306 306 306 305 305 305 305 305 305 305 307 309 310 312 313 315 316 317 317 318 319 319 318 317 316 315 316 318 319 320 321 321 321 321 322 324 327 329 330 332 334 335 336 338 339 338 338 340 339 339 339
319 319 319 318 318 317 316 316 316 315 315 315 314 313 312 312 311 310 309 307 306 305 304 304 304 304 304 304 305 305 305 305 306 306 308 310 312 313 314 316 317 317 318 318 318 317 316 315 315 316 318 319 320 321 321 321 320 321 322 325 328 331 333 335 336 336 337 338 338 339 339 339 339 340
318 319 318 317 317 316 316 316 315 315 314 314 313 312 311 311 310 308 307 305 303 303 303 302 303 304 304 304 304 305 305 305 306 307 308 310 311 313 314 316 317 317 318 318 318 317 316 315 315 316 318 319 320 320 320 321 320 320 321 323 326 330 333 335 337 338 338 338 339 340 340 340 339 340
317 318 317 316 316 316 315 315 315 314 314 313 312 311 310 309 308 306 304 303 303 303 303 303 304 303 303 302 303 304 304 305 306 307 307 309 311 312 314 316 317 317 317 318 318 317 316 315 315 315 317 319 320 319 320 320 320 320 321 321 323 327 331 334 335 337 337 338 339 340 341 340 340 340
316 317 316 316 316 315 315 315 314 313 312 311 311 310 308 307 305 303 302 302 302 301 301 303 303 301 300 302 304 304 304 305 306 306 307 308 310 312 313 315 316 316 316 317 318 318 316 316 316 315 316 318 319 319 319 320 319 320 320 321 322 324 328 331 334 335 336 337 338 339 339 340 341 341
315 316 316 316 315 315 314 313 313 312 311 310 309 308 307 305 303 302 302 303 301 298 299 303 303 300 301 303 304 303 304 305 306 306 306 307 309 311 312 313 315 315 316 317 318 319 318 317 317 316 315 316 317 318 319 319 319 319 320 320 321 322 324 328 332 334 335 336 336 337 338 340 341 341
316 315 315 315 314 314 313 312 311 310 310 309 308 306 306 305 302 299 299 299 297 295 299 303 303 301 302 303 302 303 304 305 305 305 305 306 308 310 311 312 314 315 315 316 317 318 318 317 317 317 315 315 316 317 319 319 319 318 318 319 321 321 321 324 328 332 334 335 336 336 338 340 342 341
315 315 315 314 314 313 312 311 310 309 309 308 306 305 304 303 299 296 297 298 297 297 300 303 302 301 302 302 302 303 304 304 304 304 305 306 307 309 311 312 313 314 315 315 316 317 318 318 318 317 316 315 315 316 318 318 318 318 318 318 319 320 321 322 325 329 332 334 334 335 336 338 339 341
315 314 314 313 312 312 311 310 309 308 307 306 305 304 302 301 300 300 300 300 300 301 301 302 301 301 301 302 301 302 304 303 303 304 305 306 306 307 310 312 313 314 315 315 315 316 318 319 319 318 317 316 315 315 317 317 317 318 318 318 318 319 320 321 323 326 329 332 334 335 335 335 336 338
314 313 313 312 311 310 310 309 308 307 305 304 303 301 299 299 301 301 300 300 300 300 299 299 299 300 301 301 301 302 302 302 302 304 305 306 306 306 308 311 312 313 314 314 315 315 317 318 319 319 318 316 315 315 316 317 317 317 318 318 318 318 319 320 322 324 327 330 332 333 334 335 335 335
314 313 312 312 310 309 309 307 306 304 303 301 300 298 297 298 299 300 300 300 298 297 297 298 299 299 299 299 299 301 301 301 303 304 305 305 305 306 308 310 312 312 313 314 314 314 315 317 318 319 318 316 314 314 315 316 316 316 317 317 318 318 318 318 319 320 321 323 325 327 330 334 335 335
Wind_Speed
10 10 11 12 11 11 12 12 12 12 12 13 13 14 14 14 15 17 18 17 15 15 14 14 15 15 17 18 16 16 17 17 16 17 19 21 22 22 22 20 19 19 19 18 17 16 16 15 15 15 17 19 20 21 23 24 26 28 29 30 32 35 38 40 41 41 40 40 41 40 40 40 39 37
11 11 11 12 13 13 13 13 12 12 13 14 14 15 14 14 14 15 17 18 17 15 15 16 15 15 18 19 18 18 20 19 17 17 19 20 21 22 23 23 22 22 21 20 19 18 17 16 15 14 15 16 18 20 21 23 25 27 29 31 32 33 34 37 40 43 43 43 42 42 42 42 42 40
12 12 12 13 14 13 13 14 13 13 13 13 13 14 14 14 14 14 16 19 19 17 16 18 18 18 19 20 20 20 21 20 19 18 19 19 20 21 23 24 24 24 23 22 21 21 20 19 18 17 17 17 17 18 20 21 23 25 27 30 32 34 35 35 37 40 43 45 44 43 43 43 43 43
12 12 12 13 13 13 14 15 14 13 12 12 13 14 14 14 15 15 16 19 22 21 19 20 20 19 21 22 22 21 21 21 21 21 21 20 21 22 23 24 25 25 25 24 23 23 23 23 22 22 21 21 20 20 20 21 22 23 25 28 31 33 36 37 37 37 39 43 46 46 45 44 44 43
12 12 12 13 13 13 15 16 14 11 12 13 14 14 14 14 15 16 16 19 22 23 22 21 20 20 21 23 23 22 21 21 22 23 24 23 23 24 25 25 24 25 26 26 26 26 25 25 25 24 24 24 23 23 23 22 22 23 24 26 29 32 35 37 39 39 39 40 43 46 47 46 45 44
11 11 12 13 13 13 15 15 12 10 12 14 14 14 14 15 16 16 17 19 21 22 23 23 22 22 21 22 23 23 23 23 23 24 25 24 23 24 25 26 25 26 27 28 29 29 28 27 26 26 26 26 26 26 26 25 25 26 26 27 28 31 34 36 39 41 42 41 41 44 47 48 47 46
11 12 13 13 12 12 14 14 12 12 13 14 15 16 15 16 18 19 19 20 22 23 24 23 23 24 23 23 24 25 25 25 24 25 25 23 23 23 25 26 27 27 28 29 30 30 31 30 29 27 27 27 29 29 29 29 28 28 28 29 30 31 33 36 39 41 43 44 43 43 45 48 49 48
12 12 13 14 12 12 13 13 13 14 15 16 17 17 17 18 19 20 20 21 22 24 26 24 23 24 25 25 25 25 25 25 25 25 25 23 23 23 23 24 25 25 26 27 28 28 29 29 28 28 29 29 31 32 31 31 31 31 31 32 33 34 34 36 39 42 43 45 46 45 44 46 49 50
13 14 15 15 13 13 14 14 13 14 16 17 18 19 19 19 20 20 22 22 21 22 25 25 23 23 25 25 25 25 26 25 24 24 24 23 23 22 21 22 22 22 22 23 24 25 27 29 29 30 31 32 32 33 32 32 34 35 36 36 38 39 40 39 39 42 44 44 47 48 47 46 48 50
15 15 16 15 15 15 15 14 14 15 16 17 19 20 20 21 21 21 21 22 20 20 22 24 25 24 23 24 25 24 25 25 25 25 25 23 22 21 21 23 24 23 23 23 23 25 27 30 31 32 32 33 33 32 33 36 39 40 40 41 43 44 43 41 40 41 44 45 45 48 49 47 47 49
15 16 16 16 16 16 17 16 16 15 16 17 19 20 20 21 21 20 20 21 20 20 20 22 25 25 24 24 25 25 25 25 26 26 25 24 23 22 22 25 26 25 25 25 24 25 27 29 31 32 32 33 34 34 35 39 42 42 41 43 46 45 42 38 37 38 41 44 44 47 50 50 48 49
17 17 17 17 17 17 18 18 16 15 16 17 18 20 21 21 21 21 22 22 22 21 21 23 25 26 26 25 25 25 24 24 24 24 25 27 25 24 25 26 26 26 27 28 25 24 26 28 30 31 32 32 34 36 37 39 41 40 39 42 46 48 46 40 36 35 37 42 44 45 48 50 50 49
19 19 19 18 18 18 19 19 17 17 18 18 19 20 21 22 22 23 24 24 24 24 23 26 27 26 26 24 23 23 23 24 26 26 27 27 25 26 28 28 27 28 29 30 28 24 24 27 29 30 32 33 33 35 36 35 35 35 37 43 48 50 49 44 39 36 36 38 42 44 46 48 50 50
20 19 19 19 19 19 20 20 20 21 21 21 21 21 21 22 23 24 24 24 25 24 24 26 27 26 27 26 24 24 26 27 28 27 26 26 25 27 30 31 30 28 28 30 30 27 25 28 32 32 33 34 34 33 33 33 34 37 41 47 50 48 46 44 41 38 36 37 40 44 45 46 48 50
21 20 19 19 21 23 23 23 24 25 26 26 24 22 22 22 23 24 24 25 25 25 25 26 26 26 28 29 28 27 28 27 26 26 27 29 29 30 31 32 30 26 27 29 31 31 28 30 35 35 31 31 32 32 33 34 38 43 46 49 49 46 44 44 42 40 38 37 39 43 45 45 46 48
22 21 20 20 23 26 27 27 25 25 26 25 23 22 22 22 23 23 24 25 25 25 26 27 27 27 28 29 29 28 26 26 27 30 32 31 30 30 29 29 28 27 27 28 30 33 31 27 31 33 30 29 32 33 34 36 40 46 50 52 51 49 47 45 44 42 40 39 40 43 45 46 46 47
23 23 23 24 25 27 29 28 24 21 22 22 21 22 22 22 22 24 26 27 27 27 27 27 27 27 26 27 28 27 26 27 29 32 32 30 28 27 27 28 30 29 29 28 28 31 30 25 28 34 34 33 34 35 36 39 44 50 55 55 53 50 48 46 45 44 42 41 41 44 46 47 47 47
25 26 27 27 26 27 27 26 23 21 19 19 20 21 22 22 23 24 26 26 26 25 26 26 26 25 24 25 27 27 27 28 30 29 29 31 31 29 29 30 30 29 28 27 29 34 33 29 31 35 35 35 36 38 40 45 51 56 58 56 52 50 48 46 45 45 44 42 42 44 47 49 48 47
27 28 30 28 25 26 27 24 22 20 19 19 21 21 22 24 24 25 25 25 24 25 26 27 27 25 24 25 27 28 29 30 32 30 29 31 30 27 27 27 26 27 27 26 31 37 35 32 33 35 36 37 38 41 46 53 57 58 57 53 48 45 44 44 44 44 44 42 42 45 48 49 49 48
30 31 32 29 26 25 26 24 21 20 19 21 22 22 22 23 24 25 25 26 27 27 28 28 27 26 26 26 26 27 28 29 29 26 24 25 24 23 25 26 27 28 27 26 29 34 36 35 36 38 37 36 38 46 54 58 58 56 52 46 41 37 36 38 40 41 42 42 41 44 47 49 49 48
29 29 28 27 25 22 22 23 21 20 21 22 22 22 22 23 24 24 24 24 26 26 27 28 27 27 27 27 26 25 25 24 22 21 20 21 21 23 27 30 31 30 29 28 27 29 36 39 38 37 35 35 43 54 58 58 56 54 50 44 38 35 33 33 36 38 39 40 40 43 47 49 48 47
28 27 26 25 22 20 21 23 22 22 22 21 20 21 22 23 24 23 21 19 19 22 23 23 23 24 26 27 26 25 23 21 20 21 22 21 19 23 29 32 33 32 31 30 27 28 37 42 38 34 34 41 53 57 55 56 56 53 49 44 39 36 33 31 32 34 35 38 40 43 46 48 47 46
27 26 25 22 19 20 22 23 22 22 21 20 20 20 20 20 20 21 19 16 16 19 19 19 19 19 20 21 22 21 21 21 21 22 23 21 19 23 29 31 33 34 32 29 26 30 38 43 40 33 33 43 55 57 54 55 56 51 47 44 39 35 32 31 31 31 32 36 40 43 46 47 47 47
26 23 20 20 19 20 22 22 22 22 21 20 21 21 18 16 18 21 22 21 21 20 19 18 18 17 17 18 19 20 21 21 20 21 22 22 23 26 30 31 31 34 34 32 32 35 40 42 39 36 34 39 50 57 56 55 53 49 47 44 37 32 31 30 30 30 29 33 39 43 46 47 47 48
26 18 15 18 21 21 21 21 22 21 21 20 21 21 20 19 21 23 24 24 22 19 16 16 17 17 18 18 19 20 20 19 20 21 21 22 23 25 28 30 31 35 39 39 38 39 39 38 37 39 40 41 46 52 55 54 52 48 46 42 35 31 30 29 29 29 29 31 38 43 45 46 48 48
18 13 12 16 21 21 21 21 21 21 21 21 20 21 21 21 22 22 22 21 17 14 14 15 16 17 18 19 19 20 20 19 19 20 22 24 26 28 30 31 34 39 43 41 37 33 34 35 36 38 42 44 46 48 50 52 52 48 44 40 33 30 30 28 27 27 26 27 35 41 43 45 47 48
12 12 14 18 21 21 21 22 21 21 21 20 20 20 20 20 21 21 20 17 13 13 14 15 16 17 18 19 20 20 20 20 21 24 27 30 32 33 33 32 33 35 37 34 30 27 29 34 37 38 41 46 49 50 50 51 51 48 45 40 33 30 30 26 26 27 24 24 29 36 40 43 46 48
13 14 17 20 22 23 23 22 21 21 20 19 19 20 19 19 20 18 16 13 12 14 15 15 17 19 18 19 20 20 22 25 27 30 32 31 31 31 30 30 28 28 29 27 25 26 29 33 36 38 42 47 50 53 53 51 48 45 43 39 32 29 28 25 23 24 25 25 27 31 37 43 47 48
16 19 21 23 24 24 23 22 21 20 19 18 18 19 18 18 16 14 12 12 13 15 16 16 18 19 18 18 20 23 27 30 31 30 28 27 27 27 27 27 27 26 24 22 22 25 27 30 34 37 42 47 49 50 50 47 43 41 38 35 31 28 26 25 22 21 24 27 27 29 34 42 47 49
19 21 23 23 23 23 21 21 20 20 20 20 18 17 16 14 12 11 13 15 17 17 17 17 17 17 18 20 23 27 29 29 27 25 24 24 25 25 24 25 25 23 19 18 21 24 25 27 32 38 43 45 45 45 43 40 38 37 33 30 29 27 25 24 22 22 26 28 29 29 31 39 45 47
20 21 24 24 23 23 22 21 19 18 18 16 14 13 13 11 11 13 15 17 19 19 19 18 18 19 22 24 25 25 24 23 22 21 21 23 24 22 22 24 23 20 17 16 20 23 24 26 32 37 41 42 41 39 35 30 29 29 28 26 26 25 25 24 23 22 27 28 29 31 31 35 41 45
21 21 22 20 18 17 17 14 12 12 12 11 10 11 11 12 14 16 17 17 18 18 18 19 21 23 23 23 22 20 19 20 20 19 20 21 21 20 20 21 21 19 18 17 19 23 25 28 33 37 37 38 37 34 28 23 20 21 23 26 26 23 22 23 21 20 24 24 24 29 32 33 37 42
19 16 14 13 11 10 9 8 8 9 11 12 12 12 13 13 13 14 14 14 15 15 17 21 23 22 20 19 18 18 18 19 19 19 20 21 20 19 19 19 19 20 19 19 21 24 28 31 34 36 35 34 32 27 23 23 22 21 22 24 24 23 21 19 16 16 21 23 24 28 31 31 31 35
16 12 11 12 12 10 9 9 10 11 13 13 13 14 15 15 13 13 13 12 13 16 20 22 20 18 17 17 17 16 17 18 19 19 19 19 18 19 20 20 20 20 21 20 21 25 29 32 35 36 35 35 31 24 21 25 26 25 24 22 19 19 19 16 14 15 20 24 27 31 33 32 29 29
14 10 10 12 11 10 10 11 12 12 13 14 14 14 14 13 13 12 12 13 16 20 21 19 16 15 15 15 16 16 17 18 19 18 18 18 18 18 20 20 19 19 20 20 20 22 27 33 37 38 38 38 37 30 25 26 28 27 26 23 17 14 14 13 13 16 20 20 22 29 34 32 30 29
11 9 11 12 11 11 12 12 12 13 13 13 13 13 13 13 11 11 13 17 21 21 17 14 13 14 14 14 15 16 16 17 18 18 18 18 17 18 20 21 21 20 20 19 18 20 26 33 37 38 38 40 41 37 30 27 27 28 28 27 21 14 11 12 12 14 19 19 17 23 28 28 30 31
9 8 10 10 11 12 12 12 12 13 13 13 12 13 13 12 11 13 17 20 20 16 13 12 12 12 13 14 15 15 16 16 17 17 17 17 17 18 21 22 22 23 22 18 15 18 25 31 34 36 36 38 40 40 34 28 26 27 28 28 25 19 12 11 12 13 17 19 19 20 22 25 29 33
7 7 9 10 11 12 12 12 12 13 13 13 13 13 13 12 12 14 17 17 13 11 11 11 11 12 13 14 14 15 15 16 16 16 17 17 17 19 22 23 23 24 22 18 16 19 24 28 32 34 34 35 38 39 36 30 28 27 26 26 26 22 15 10 10 14 15 17 19 20 21 23 24 26
8 8 10 11 11 11 11 11 12 12 12 12 12 12 12 12 12 13 13 11 10 10 10 9 10 12 12 13 13 14 15 16 16 16 16 16 17 19 22 24 24 24 22 19 18 19 20 24 28 32 33 32 32 33 31 28 27 26 24 24 25 24 20 15 10 12 14 16 19 20 21 23 23 22
7 9 11 11 10 10 11 11 12 12 11 12 13 14 13 12 12 11 9 9 10 10 8 9 10 12 12 12 13 14 15 15 15 15 16 17 17 18 21 23 26 25 21 21 21 19 18 21 25 27 29 30 28 28 27 25 26 27 24 22 23 24 23 19 13 9 8 12 18 20 20 21 23 25
9 10 10 9 9 10 10 10 11 11 11 11 12 14 14 14 12 9 8 8 9 8 7 8 10 11 11 12 13 14 14 15 15 15 16 17 17 18 20 22 24 24 22 21 22 20 18 20 21 22 25 29 30 29 29 28 29 29 27 23 20 20 21 19 14 10 8 8 10 14 18 19 22 26
10 9 9 9 9 10 10 10 11 11 11 10 11 12 13 12 9 8 7 7 7 7 7 8 10 10 11 12 13 14 14 15 15 15 16 16 17 18 19 19 21 23 23 22 21 20 19 18 18 19 22 27 30 31 30 29 29 28 27 26 23 19 18 19 15 11 9 9 8 5 7 11 17 25
11 10 9 10 10 10 10 11 12 11 11 11 12 12 11 8 7 6 6 6 7 7 7 8 9 10 11 12 13 13 13 14 15 15 16 16 17 17 18 18 19 21 22 22 22 20 18 17 17 18 21 24 28 29 29 27 26 26 26 28 27 23 20 19 18 13 7 7 7 6 5 6 9 12
10 10 9 9 10 10 10 11 11 12 11 11 11 10 8 6 6 6 6 6 7 7 7 8 8 9 11 12 13 13 13 14 15 15 15 16 16 17 17 17 18 19 21 22 23 20 18 17 18 17 19 21 25 27 28 27 26 26 26 26 28 28 25 22 19 17 12 6 4 6 6 8 13 7
10 9 9 9 10 9 9 10 10 10 10 9 8 7 7 6 6 6 6 7 7 7 7 8 8 9 10 11 12 14 14 15 15 15 15 15 16 16 16 16 17 19 21 23 23 21 19 19 18 16 17 19 22 24 27 27 27 27 26 27 28 29 28 27 24 22 22 21 19 15 9 3 8 10
Wind_Direction
259 262 269 275 275 273 276 280 282 283 286 289 289 289 288 288 290 294 296 295 294 297 296 294 294 292 292 297 298 295 293 291 291 294 294 294 294 293 290 288 287 285 284 285 287 291 296 300 299 293 290 289 288 287 284 281 277 275 273 271 268 264 260 257 255 255 255 255 255 254 253 252 251 249
262 262 263 271 275 277 279 282 283 284 289 293 294 294 292 288 287 290 293 294 294 294 293 292 292 291 291 295 296 297 299 298 295 294 295 295 295 293 292 290 289 288 286 284 285 287 290 294 298 299 297 294 293 292 290 287 282 277 273 271 270 268 265 261 257 255 254 254 254 253 253 252 251 250
262 263 264 267 271 275 278 279 278 279 286 292 293 293 293 289 287 288 289 289 291 294 292 289 289 288 286 287 290 295 301 301 296 293 294 295 295 292 290 289 288 287 285 282 282 284 286 286 288 294 298 298 297 297 296 295 292 287 280 275 270 267 266 265 262 258 255 253 252 251 251 250 250 250
255 258 260 262 265 270 272 273 275 278 285 289 290 291 290 288 287 286 284 284 288 293 292 290 291 291 290 290 292 295 299 299 297 297 297 298 298 295 292 292 291 289 287 283 282 283 284 283 283 288 294 296 296 296 298 298 298 297 292 286 279 272 267 264 263 261 258 255 251 250 249 249 249 248
247 250 253 256 260 264 267 271 275 279 283 288 289 288 286 284 283 282 282 283 286 292 295 294 292 293 293 294 295 296 297 298 298 299 300 301 301 299 298 298 295 293 290 287 286 286 285 284 283 285 290 293 294 294 295 296 297 299 298 295 290 283 275 268 263 261 259 257 254 250 248 248 248 247
244 248 253 258 260 264 268 272 275 273 278 284 286 284 281 280 281 282 282 284 287 290 294 296 294 294 294 294 295 296 296 299 300 297 297 298 296 296 298 298 296 294 293 291 289 288 286 285 284 284 287 290 291 292 294 296 298 298 299 299 297 293 286 277 269 262 259 256 255 252 249 247 246 246
248 254 259 262 264 265 268 273 276 278 284 290 292 292 290 287 290 293 289 289 291 292 294 295 295 295 295 294 296 298 298 301 302 300 298 296 293 292 293 294 293 292 291 290 288 286 284 282 283 284 284 286 288 292 295 296 298 299 299 299 298 297 293 286 277 268 261 256 254 252 250 247 245 245
250 256 259 261 262 261 263 269 279 288 296 301 300 299 297 293 294 297 292 289 290 292 295 297 297 295 295 297 299 301 302 303 303 302 301 299 297 296 294 292 292 291 291 291 291 290 285 281 282 283 283 283 284 287 292 296 300 302 302 300 299 298 296 291 282 273 266 259 254 252 250 247 245 243
251 253 255 258 259 258 260 267 278 288 296 302 303 301 299 296 295 296 296 293 286 283 289 297 300 296 294 297 300 301 303 303 301 300 300 298 297 297 294 293 294 294 294 294 294 294 290 287 289 289 288 285 283 285 292 299 304 306 305 304 304 302 299 295 286 275 268 262 256 251 249 247 245 242
254 255 256 257 256 257 262 268 277 285 292 299 304 305 304 303 301 297 294 291 284 277 281 291 299 297 292 294 297 300 301 300 299 299 298 296 295 294 292 292 293 292 290 287 287 289 288 289 293 296 296 292 289 290 296 302 306 308 308 307 307 306 301 296 288 276 267 263 259 253 249 246 244 242
255 259 259 259 258 259 264 272 279 287 294 299 303 304 303 302 298 292 288 287 284 281 279 283 290 294 293 292 295 299 300 298 298 300 298 296 294 292 292 292 293 292 289 287 287 288 288 290 295 298 297 295 293 295 299 302 304 307 308 309 309 307 302 295 287 276 266 263 261 255 250 247 244 241
255 258 258 259 260 261 266 275 282 286 292 297 300 300 300 299 295 292 292 293 292 288 285 284 287 291 294 294 295 298 297 293 295 298 297 295 294 293 293 293 293 293 292 290 287 285 286 289 292 293 291 290 292 294 297 298 300 304 306 309 309 306 302 295 286 276 267 262 260 256 251 247 244 241
257 257 258 259 260 260 265 274 280 282 286 291 294 296 297 296 295 294 295 297 297 295 293 292 293 293 293 293 295 295 293 291 295 298 297 294 294 295 295 294 293 293 294 292 287 282 283 285 287 287 286 287 289 290 290 290 293 296 297 300 304 303 298 293 285 275 268 262 258 255 251 247 245 242
258 259 262 265 267 268 270 273 277 279 282 286 290 292 292 291 291 293 294 294 296 296 295 295 296 296 295 296 297 295 294 295 297 299 296 294 295 296 296 295 295 295 294 292 288 283 283 285 287 287 285 287 287 284 283 283 285 291 295 297 299 297 292 288 282 275 268 261 256 253 250 247 244 242
258 261 265 266 271 276 278 278 279 280 282 284 284 286 288 289 290 291 291 293 295 294 293 293 294 294 295 297 297 296 296 296 296 295 294 296 298 298 298 297 297 294 293 292 289 286 285 287 290 290 286 285 285 282 282 283 285 291 299 300 296 291 287 282 277 273 267 260 253 250 248 245 242 241
261 264 266 265 271 281 286 287 285 282 282 281 279 281 285 287 288 289 288 291 293 292 291 291 291 291 293 294 295 297 297 296 294 294 296 298 298 297 296 295 293 292 292 291 288 288 289 291 291 290 287 284 284 284 284 284 286 292 299 299 293 288 285 279 274 271 267 260 252 246 244 242 240 238
265 267 269 271 277 284 290 291 288 282 278 278 279 283 287 289 290 291 291 293 294 292 291 290 290 291 292 292 294 296 296 295 296 297 298 297 295 292 291 289 288 289 290 290 289 288 289 292 291 290 289 288 287 286 284 285 291 297 299 297 292 286 282 277 273 270 265 259 252 245 242 240 237 235
266 268 270 274 280 286 289 288 284 281 278 279 282 286 289 291 292 293 295 297 298 295 293 293 292 293 291 290 292 293 293 293 293 294 294 293 291 290 289 288 288 292 297 299 295 289 289 295 295 290 291 291 288 286 288 292 297 300 299 296 291 286 282 277 273 270 263 256 250 245 241 238 236 234
266 268 270 274 281 287 287 282 278 279 279 279 282 285 287 288 289 291 292 292 291 289 290 291 290 290 289 288 290 292 292 291 291 290 290 290 290 290 290 290 291 296 299 297 290 286 290 297 296 292 294 294 289 289 296 301 302 301 300 297 292 287 282 277 271 266 259 253 247 243 240 237 235 232
266 269 273 280 287 288 283 277 276 280 281 281 284 286 288 289 291 292 292 291 290 288 286 285 286 289 292 293 293 293 293 292 292 291 290 290 291 291 291 291 291 292 291 286 283 285 292 298 298 296 298 296 291 296 303 306 305 304 303 301 297 291 282 274 267 260 255 252 246 241 238 236 233 231
269 272 277 285 289 283 275 276 281 284 283 284 287 288 290 292 292 293 292 294 296 293 289 289 293 297 299 300 298 295 291 288 289 292 292 290 291 291 290 290 291 291 289 287 285 286 294 302 303 299 298 296 297 303 308 309 308 307 306 303 299 295 286 275 266 258 252 250 246 239 235 233 231 230
267 271 281 289 287 276 273 279 284 286 285 288 290 290 292 292 292 294 295 295 294 291 291 295 299 302 303 303 302 300 296 292 294 297 297 293 289 288 289 290 293 293 290 290 292 293 300 307 306 301 300 302 305 306 308 309 310 308 306 303 298 293 287 278 269 260 251 247 243 237 233 230 229 227
272 277 284 287 278 271 275 281 284 285 288 290 291 290 290 289 289 293 294 291 287 288 291 294 295 297 299 300 301 302 302 301 300 300 300 297 291 288 289 292 294 294 292 293 297 300 305 308 307 304 304 305 307 308 308 309 310 306 303 303 299 290 284 278 272 265 253 244 238 234 230 227 226 225
283 286 283 279 274 272 277 282 285 288 290 291 291 289 287 286 289 292 292 289 289 291 292 292 294 295 295 296 298 297 297 296 295 294 293 291 288 288 290 292 292 290 290 293 298 302 305 306 306 307 306 302 303 306 307 307 307 302 300 302 298 287 280 277 272 267 259 245 236 231 229 225 222 221
280 276 267 270 278 283 285 287 290 292 292 291 289 287 286 287 290 292 292 290 290 291 291 293 296 297 296 298 298 296 294 293 292 291 289 287 287 288 289 290 291 290 291 296 302 304 303 305 306 308 307 302 299 301 303 305 304 301 300 301 296 285 280 276 268 264 261 249 235 229 227 224 221 218
268 258 252 265 279 288 291 293 293 292 292 291 288 288 289 290 291 290 289 288 288 288 290 293 295 296 298 301 299 297 296 294 292 290 289 290 291 290 290 291 292 292 295 301 307 305 302 306 310 309 308 307 304 301 302 303 303 302 300 299 293 284 279 272 261 259 260 249 237 231 226 223 219 216
260 260 265 276 288 294 294 294 293 292 292 291 288 289 290 288 287 287 288 289 288 288 290 293 295 297 298 299 297 296 296 295 293 294 295 297 297 296 297 297 295 295 298 304 309 311 308 308 309 310 310 311 310 306 304 304 303 300 298 295 291 286 283 273 257 254 252 245 240 234 227 223 218 215
266 274 283 292 297 296 294 293 292 291 291 290 290 291 288 285 287 290 291 288 284 287 290 291 293 295 295 295 295 295 296 298 300 302 302 302 302 302 304 305 303 303 303 304 312 320 314 303 299 304 307 308 308 306 306 304 301 295 293 293 290 287 287 283 270 255 242 236 238 234 225 219 215 213
282 290 294 294 292 291 290 290 291 290 290 289 288 284 282 287 293 293 288 284 286 289 291 291 293 294 294 294 294 296 300 304 306 308 307 305 306 309 310 308 306 306 305 306 316 322 311 298 297 305 308 309 308 308 306 303 295 290 289 291 289 284 286 289 281 256 233 226 229 231 224 217 213 211
292 294 292 289 288 288 288 290 291 291 289 287 283 282 285 292 297 291 287 293 298 298 297 296 295 294 295 297 300 303 306 309 310 309 307 306 309 312 310 306 306 307 307 309 315 314 307 303 309 315 315 315 316 314 311 302 292 288 289 288 287 285 285 289 283 256 233 223 221 223 220 215 213 213
293 291 288 287 285 285 286 287 286 287 287 286 286 290 291 287 285 288 293 299 302 301 301 300 298 299 302 304 306 307 308 308 308 307 306 307 310 313 311 308 307 309 312 314 313 312 312 317 322 322 322 323 323 320 316 309 300 296 292 286 285 286 286 291 289 260 232 220 217 217 217 216 216 216
291 289 288 287 285 283 285 285 281 282 286 288 289 290 282 276 285 296 301 305 305 303 302 303 305 306 307 305 305 306 306 306 308 308 308 310 312 312 311 310 309 310 314 316 315 318 323 329 329 327 330 333 329 321 320 325 322 311 298 286 285 288 289 293 293 263 234 224 219 216 215 217 218 218
284 282 285 289 287 282 281 280 276 277 282 284 286 288 284 281 286 294 298 302 301 298 299 305 308 307 304 302 305 307 307 309 311 312 313 315 315 314 313 313 314 316 317 316 318 323 329 333 333 333 338 342 338 329 330 340 340 330 319 304 293 290 290 288 285 264 241 232 222 212 213 216 217 218
274 268 271 279 279 277 278 278 276 276 281 281 280 285 288 284 282 285 290 292 293 296 302 307 307 303 301 303 306 307 308 312 315 317 317 317 316 316 316 316 318 321 320 320 320 324 330 336 339 340 343 348 349 346 347 351 348 340 337 331 312 296 290 282 270 254 245 239 227 218 219 221 218 216
268 261 266 270 269 269 273 276 277 280 283 282 281 284 284 280 281 287 289 289 295 302 307 306 301 299 302 303 305 308 311 315 317 319 320 318 317 318 319 321 323 322 321 322 324 328 336 344 348 347 346 350 353 352 351 354 354 347 345 347 337 308 285 273 262 249 247 250 235 218 216 218 217 216
259 255 263 267 265 266 271 276 280 281 280 281 283 284 279 277 283 284 282 290 301 306 305 299 296 300 303 303 307 311 313 315 317 319 320 322 322 322 324 329 333 329 325 325 327 335 345 352 355 353 349 350 352 349 347 353 358 354 350 352 349 330 287 263 258 249 247 251 238 215 210 213 214 216
253 250 257 263 268 270 272 275 279 279 278 278 279 278 277 280 284 284 289 300 307 306 301 300 302 303 303 305 310 313 313 315 317 318 321 325 325 324 330 340 344 340 336 331 328 337 348 355 358 357 353 349 349 347 345 352 1 1 356 354 353 348 321 278 264 259 250 242 232 221 219 221 221 222
238 246 261 268 270 269 268 271 275 274 273 274 274 274 278 281 283 289 299 308 307 297 297 302 300 299 305 310 313 314 315 316 317 318 322 325 324 327 337 347 351 349 346 340 330 334 346 355 360 1 357 350 348 346 345 351 2 6 3 359 357 353 346 323 288 274 260 240 229 227 226 227 227 226
232 251 266 266 264 263 263 266 269 269 269 271 271 273 278 284 288 294 301 301 291 289 296 299 297 303 314 318 316 316 316 317 317 320 323 325 324 328 336 346 353 353 349 341 332 331 341 351 358 1 359 353 350 348 347 352 3 8 5 4 4 360 357 355 331 290 269 251 243 239 232 228 227 223
246 256 260 257 257 260 261 262 264 266 266 267 267 270 277 284 289 292 289 284 285 294 302 300 303 314 321 319 318 319 318 318 319 320 323 325 326 325 329 342 354 355 345 336 333 333 337 346 352 357 359 356 354 354 355 360 8 11 8 8 10 9 3 358 347 326 297 267 251 240 227 223 225 223
252 251 251 253 254 257 260 262 263 262 261 263 269 277 286 291 289 281 275 276 285 299 308 306 309 319 322 320 321 322 319 319 322 322 323 326 326 325 328 337 347 349 343 336 334 333 334 340 344 350 357 0 1 2 4 5 7 11 14 14 15 17 16 8 355 339 325 300 265 235 218 217 222 221
251 248 252 257 255 255 259 259 256 256 259 263 269 278 288 293 289 280 280 288 297 310 318 313 313 321 324 322 323 323 321 321 322 322 326 328 327 328 331 333 337 344 346 341 335 331 332 338 341 344 355 4 7 7 6 5 3 8 17 21 19 21 29 29 19 354 323 310 308 278 218 221 227 217
245 242 248 251 247 246 247 245 247 254 260 264 272 279 282 279 275 276 281 287 295 305 310 310 316 326 327 324 327 327 323 322 324 325 328 330 329 329 331 331 334 341 344 341 336 332 334 343 348 347 353 5 12 11 7 5 6 10 17 24 26 25 31 43 48 38 4 307 302 329 355 330 295 226
235 232 232 232 232 235 237 241 250 260 265 268 274 279 271 250 249 263 271 277 286 297 306 314 325 329 325 326 330 328 324 327 331 330 328 329 331 331 331 332 336 339 343 347 348 343 341 348 354 355 359 8 16 17 13 10 13 15 18 25 30 30 29 37 50 54 53 50 18 1 356 337 332 337
232 225 221 225 232 236 241 249 257 265 271 272 266 262 255 245 247 260 271 280 290 299 308 318 324 323 323 330 334 331 331 334 334 330 329 330 334 334 333 334 337 340 347 356 356 348 344 350 356 6 16 18 20 23 21 17 18 21 23 28 33 35 33 32 37 46 56 62 61 53 46 356 317 332